Lapse_Rate
0.3 1.1 1.4 2.0 3.3 3.7 3.8 3.9 3.9 3.6 3.5 3.6 3.9 3.9 3.8 3.6 3.4 3.4 3.3 3.3 3.4 3.6 3.4 3.1 3.0 3.4 3.6 4.3 4.7 4.6 3.5 3.0
-1.9 -0.2 0.8 1.2 2.6 3.7 4.3 4.1 3.7 3.9 3.9 3.9 3.9 3.9 3.8 3.7 3.6 3.6 3.5 3.4 3.3 3.3 3.3 3.0 2.9 3.2 3.6 4.1 4.7 4.7 3.5 3.1
-2.6 -2.0 -1.6 -1.0 1.4 -0.2 3.0 4.1 4.4 4.0 4.1 4.1 4.0 3.4 3.5 3.5 3.5 3.5 3.5 3.4 3.3 3.3 3.3 3.1 3.0 3.1 3.7 4.0 4.6 3.7 3.4 3.5
-3.5 -3.5 -4.1 -3.5 -2.0 -2.6 -2.0 -0.3 3.4 4.5 4.8 4.0 3.5 3.5 3.4 3.5 3.4 3.6 3.6 3.7 3.6 3.5 3.3 3.3 2.9 2.3 2.7 3.4 3.3 3.4 3.1 3.4
-4.1 -4.2 -4.2 -4.5 -4.7 -4.4 -4.4 -2.5 -1.5 1.0 3.8 4.6 4.6 4.5 3.9 3.5 3.6 3.4 3.2 3.3 3.0 3.2 2.8 2.3 1.8 1.6 1.7 1.9 2.3 3.0 2.9 3.4
-4.1 -4.3 -5.0 -5.1 -4.9 -4.7 -5.1 -4.0 -3.3 -2.1 -1.2 1.7 3.7 4.1 4.2 4.4 4.1 4.3 4.2 3.8 3.3 2.1 2.0 1.8 1.5 1.7 1.7 1.7 1.9 2.4 2.7 3.2
-4.1 -4.1 -5.0 -5.7 -5.7 -5.8 -5.0 -4.7 -4.3 -3.8 -2.9 -1.8 -0.1 4.5 4.3 4.1 4.4 4.2 4.3 4.1 3.5 2.4 1.6 1.8 1.6 1.3 1.5 1.6 1.8 2.2 2.8 3.0
-4.4 -4.4 -5.0 -5.7 -6.1 -6.0 -5.9 -5.6 -4.7 -4.2 -4.1 -3.5 -2.5 -0.3 3.8 4.6 4.6 4.5 4.5 4.5 3.7 2.7 2.1 1.6 2.1 1.7 1.6 1.8 2.1 2.3 2.9 2.9
-4.5 -4.3 -5.0 -5.8 -6.0 -5.6 -5.1 -5.0 -4.7 -4.8 -4.0 -3.7 -2.9 -1.3 -0.7 3.5 4.9 4.5 4.9 5.0 4.3 3.2 2.3 1.1 1.5 1.9 1.9 1.9 2.4 2.7 2.9 3.1
-3.2 -3.3 -4.1 -4.8 -4.9 -4.7 -4.4 -3.8 -3.9 -3.4 -3.0 -2.9 -2.7 -1.9 -0.6 0.2 3.2 5.3 5.5 5.0 4.7 4.2 2.8 2.7 2.1 2.5 2.9 2.3 2.5 2.8 3.0 3.3
-3.2 -3.2 -3.5 -3.7 -3.7 -3.5 -3.4 -3.3 -2.8 -2.1 -1.5 -1.0 -0.8 -1.0 -0.8 -0.2 0.5 3.7 5.3 5.0 5.2 4.9 3.8 3.0 3.0 2.4 3.0 2.9 2.4 2.9 3.4 3.9
-2.3 -2.3 -2.2 -2.5 -2.7 -2.9 -2.8 -2.4 -1.9 -1.8 -1.0 0.2 1.4 1.0 0.9 0.2 0.7 3.1 5.0 5.4 5.0 4.9 4.9 3.9 3.4 3.0 3.1 3.7 2.9 3.0 3.5 3.4
-1.1 -1.5 -1.6 -1.9 -2.6 -2.6 -2.5 -1.4 -0.7 0.2 1.2 2.8 2.1 2.6 2.3 1.5 0.6 0.8 2.7 5.4 5.4 4.9 5.1 5.2 4.4 2.7 2.2 2.8 2.5 2.2 2.9 3.0
-0.7 -0.5 0.1 0.5 0.6 0.8 1.0 0.8 1.4 2.7 2.3 1.5 3.8 4.3 4.7 4.0 3.0 1.6 1.4 3.4 5.4 6.0 5.6 6.2 4.8 3.3 4.5 3.7 5.5 4.4 2.7 3.2
-0.6 0.6 1.3 1.7 2.0 2.1 2.0 2.5 3.3 3.9 3.4 4.3 3.5 5.8 6.2 5.6 4.6 4.2 2.6 3.5 4.6 5.7 5.5 5.1 5.6 4.6 4.7 4.6 4.4 5.8 5.1 2.1
0.5 1.4 1.8 2.6 2.9 2.7 3.2 4.7 5.4 5.7 6.1 6.3 5.8 6.1 6.3 6.8 5.0 3.6 3.3 3.3 4.5 6.0 5.2 5.8 5.3 5.5 5.1 5.4 2.9 3.2 4.6 4.3
0.8 1.5 1.9 2.4 2.3 2.8 3.7 4.5 5.0 5.3 5.2 5.2 5.7 6.6 6.6 6.1 7.1 6.5 5.8 5.1 4.9 6.0 5.4 4.3 5.0 5.5 5.8 7.2 5.4 2.1 2.3 3.6
0.4 0.6 1.5 1.9 2.1 2.5 3.1 3.9 5.1 5.9 5.5 5.0 5.2 5.4 6.2 6.3 6.8 6.0 5.9 5.1 4.9 5.7 5.4 5.5 5.0 4.6 5.5 5.6 6.3 5.6 4.3 3.0
1.5 1.4 1.7 2.1 2.2 2.5 3.6 4.4 5.7 6.3 5.9 5.7 5.3 5.4 5.2 4.9 5.6 5.8 5.9 6.1 4.3 3.8 4.3 5.4 4.9 4.3 4.3 4.9 5.1 6.0 6.4 5.4
1.5 1.6 1.7 1.9 2.2 2.7 4.3 4.3 5.7 5.8 5.8 6.1 5.7 5.2 5.2 5.4 5.0 4.5 4.9 4.5 2.5 2.2 3.5 5.5 5.3 4.6 4.6 5.0 4.0 4.9 6.1 6.6
Wind_Speed
24 25 26 24 17 17 13 9 7 8 10 11 11 12 13 13 13 13 14 15 15 14 14 13 13 13 12 12 10 9 8 10
23 25 26 25 21 15 14 16 12 9 11 11 12 14 15 15 14 14 14 15 14 15 14 13 13 13 13 13 11 8 8 11
21 22 24 24 21 23 20 13 11 11 11 13 13 11 13 14 16 16 16 16 15 16 15 14 14 13 14 14 12 8 10 12
16 20 21 22 20 21 20 20 15 12 10 10 8 9 11 12 14 18 16 16 15 15 16 16 14 11 12 13 11 10 11 12
15 18 22 20 18 18 15 15 16 17 13 11 9 9 10 11 11 11 12 14 11 13 14 13 12 10 10 10 12 9 11 13
15 19 18 19 18 15 15 13 15 12 16 21 8 5 8 10 8 13 14 13 12 9 8 10 11 12 11 9 10 10 10 13
14 17 16 19 16 15 15 14 13 16 15 17 19 7 7 9 10 12 13 15 12 8 7 7 7 9 10 9 7 10 10 12
14 13 17 18 13 16 13 14 16 16 16 17 19 17 11 8 9 9 9 17 16 12 9 7 7 6 7 9 8 10 11 11
14 15 19 17 13 13 13 15 17 15 16 19 19 18 18 16 10 10 9 16 17 12 8 6 5 5 8 7 8 10 10 11
13 14 15 17 15 15 14 14 14 14 17 19 20 19 20 15 12 12 15 13 10 10 9 9 8 8 8 8 7 7 9 11
14 14 15 16 15 15 16 17 14 15 16 17 20 23 22 15 11 12 14 10 10 10 10 11 10 8 9 8 6 8 9 9
13 12 15 14 12 12 11 10 13 18 17 15 20 21 22 19 12 13 13 11 14 11 11 9 10 10 10 9 7 7 7 7
13 15 16 13 13 13 12 12 12 10 15 20 23 21 20 17 12 12 12 12 11 12 15 13 10 9 5 3 4 5 7 7
14 14 15 13 11 11 10 11 9 12 17 20 20 22 22 17 16 13 14 11 14 15 16 15 12 11 9 3 6 6 7 10
14 15 15 13 15 10 10 10 11 8 12 13 15 22 22 21 16 15 14 12 11 12 13 15 13 11 17 6 3 7 5 4
12 15 15 13 14 12 16 11 13 11 11 12 14 24 19 21 18 15 14 12 14 12 10 13 11 6 4 11 3 4 5 4
13 15 16 16 17 14 11 13 12 13 12 16 15 13 19 19 15 17 15 11 14 13 10 10 11 11 10 10 15 4 3 2
14 16 16 17 15 15 15 16 17 15 15 12 11 12 12 15 15 15 16 14 15 12 11 13 10 13 16 14 10 10 8 4
13 14 15 17 17 15 15 15 16 16 15 12 15 12 12 15 18 16 13 14 16 15 15 11 11 12 16 17 14 12 11 11
13 14 15 16 18 15 14 14 9 11 13 12 10 11 12 17 16 16 16 15 15 15 12 11 12 12 19 17 13 10 11 13
Wind_Direction
15 14 12 5 1 353 336 308 277 227 212 209 209 209 207 202 201 193 186 180 179 181 181 187 182 183 188 193 191 202 194 200
10 8 8 3 357 345 340 323 303 241 249 238 225 218 216 212 213 215 205 195 187 187 188 196 199 190 195 198 200 214 210 192
9 6 3 0 7 359 349 335 327 300 259 252 251 242 228 223 221 222 219 209 197 193 195 198 212 202 202 207 203 211 207 197
4 4 1 0 1 359 357 354 347 316 281 274 247 240 243 231 229 229 228 226 215 203 203 204 211 218 216 214 222 206 205 204
2 360 358 359 355 354 353 350 351 339 320 280 272 262 246 235 240 235 224 227 228 217 209 206 204 212 224 219 224 225 205 202
356 358 360 356 350 352 343 345 343 344 332 326 252 235 246 248 227 231 226 218 220 216 213 210 205 210 217 228 228 230 214 204
356 355 359 353 350 347 344 341 339 334 330 329 339 280 238 234 236 223 223 219 214 213 209 208 212 207 208 221 230 234 230 219
352 355 359 352 348 345 341 338 335 336 329 324 323 321 306 244 236 233 216 214 212 211 209 204 220 206 204 212 226 232 231 223
356 354 355 355 349 344 342 338 337 331 326 324 321 320 315 311 254 242 222 215 214 211 207 178 191 207 211 197 212 229 230 225
356 355 354 353 347 345 342 340 333 328 326 322 320 317 313 310 309 248 226 212 216 219 201 211 206 211 227 216 203 202 225 221
358 356 356 351 348 344 338 336 337 334 326 323 321 319 311 304 301 300 254 244 232 213 217 200 207 211 221 228 206 208 211 222
357 357 357 353 351 347 345 340 338 334 330 323 323 321 320 319 308 305 287 226 226 195 212 209 209 211 210 223 223 223 211 212
3 359 0 359 359 353 350 343 336 331 329 327 327 317 315 316 307 306 308 276 233 248 221 243 218 202 194 236 237 218 220 214
8 4 2 0 357 347 342 333 332 329 333 323 322 320 316 318 311 305 306 302 280 226 208 214 211 196 203 181 215 234 225 220
4 360 358 358 356 346 342 332 334 333 333 329 321 320 316 314 308 302 296 294 286 259 226 224 211 192 208 167 175 217 206 183
0 1 356 358 353 349 350 342 336 328 324 321 321 318 314 315 306 299 294 293 283 276 237 229 223 217 219 224 231 150 191 195
360 359 359 359 357 350 344 337 336 331 327 323 317 315 313 310 314 313 305 299 296 283 238 220 221 227 222 230 227 197 267 175
358 358 358 357 355 349 345 345 337 332 333 325 324 324 321 320 319 314 304 305 304 300 265 226 209 215 221 239 238 213 210 209
1 354 355 355 357 350 346 348 334 324 328 326 329 331 329 321 322 315 305 309 308 306 299 248 216 210 211 226 230 251 233 223
355 353 355 355 358 351 346 345 334 327 328 328 330 330 325 329 330 332 330 323 314 307 291 276 232 210 212 220 216 237 256 238